Find Starlink 32831

NORAD ID: 62860 Int'l Des: 2025-022 Owner: SPXS Country: US Constellation: starlink operational
LEOCIRCULAR

Live Position

Loading 3D Globe...

About Starlink 32831

Description loading...

Upcoming Passes

Passes for default location (London). Set your location on the main map for personalized predictions.

Altitude History

Loading altitude history...

Two-Line Element Set

1 62860U 25022G 26124.55244541 .00020353 00000-0 69745-3 0 9995
2 62860 53.1623 230.0889 0001009 90.1396 269.9721 15.30197866 70449
Epoch: May 4, 2026 • Age: 21 hours

Current Status

Altitude 480.1 km
Velocity 7.63 km/s
Sub-Earth Point 49.45°N, 29.42°W
Launch Date Feb 2, 2025
Age 1.2 years
Type internet

Technical Details

Classification Payload
Mass 730.00 kg
Dry Mass 700.00 kg
Total Mass 730.00 kg
Length 0.30 m
Diameter 4.10 m
Span 29.00 m
Shape Box + pan
Manufacturer SPXS
Bus Type Starlink V2M
Phase Status In Orbit
Owner/State SPXS/US

Most Searched